Weather History for KLHW - December, 2014

Change the Weather History Date:

Saturday, December 13, 2014

  Actual Average Record
Temperature  
Mean Temperature 48 °F -  
Max Temperature 65 °F 66 °F 80 °F (1971)
Min Temperature 30 °F 43 °F 23 °F (1988)
Degree Days  
Heating Degree Days 18    
Moisture  
Dew Point 31 °F    
Average Humidity 65    
Maximum Humidity 92    
Minimum Humidity 21    
Precipitation  
Precipitation 0.00 in - - ()
Sea Level Pressure  
Sea Level Pressure 30.14 in    
Wind  
Wind Speed 0 mph (WSW)    
Max Wind Speed 4 mph    
Max Gust Speed -    
Visibility 10 miles    
Events      
Averages and records for this station are not official NWS values.
T = Trace of Precipitation, MM = Missing Value Source: NWS Daily Summary

Daily Weather History Graph

Daily Weather History Graph

Search for Another Location

Airport or City:

Trip Planner

Search our weather history database for the weather conditions in past years. The results will help you decide how hot, cold, wet, or windy it might be!

Date:

Astronomy

Dec. 13, 2014 Rise Set
Actual Time 7:17 AM EST 5:23 PM EST
Civil Twilight 6:50 AM EST 5:50 PM EST
Nautical Twilight 6:20 AM EST 6:20 PM EST
Astronomical Twilight 5:50 AM EST 6:50 PM EST
Moon No Moon Rise 11:58 AM EST (12/13)
Length of Visible Light 10h 59m
Length of Day
10h 05m
Waning Gibbous, 58% of the Moon is Illuminated
Dec 13
Waning Gibbous
Dec 14
Last Quarter
Dec 21
New
Dec 28
First Quarter
Jan 4
Full

Hourly Weather History & Observations

Time (EST) Temp. Dew Point Humidity Pressure Visibility Wind Dir Wind Speed Gust Speed Precip Events Conditions
12:58 AM 34.2 °F 31.5 °F 90% 30.19 in 10.0 mi Calm Calm - N/A   Clear
1:58 AM 33.6 °F 31.3 °F 91% 30.19 in 10.0 mi Calm Calm - N/A   Clear
2:58 AM 32.2 °F 29.7 °F 90% 30.18 in 10.0 mi Calm Calm - N/A   Clear
3:58 AM 33.8 °F 30.6 °F 88% 30.17 in 10.0 mi Calm Calm - N/A   Clear
4:58 AM 32.7 °F 29.8 °F 89% 30.16 in 10.0 mi Calm Calm - N/A   Clear
5:58 AM 30.7 °F 28.4 °F 91% 30.17 in 10.0 mi Calm Calm - N/A   Clear
6:58 AM 30.0 °F 27.7 °F 91% 30.18 in 10.0 mi Calm Calm - N/A   Clear
7:58 AM 31.3 °F 29.3 °F 92% 30.19 in 10.0 mi Calm Calm - N/A   Clear
8:58 AM 40.1 °F 32.0 °F 73% 30.21 in 10.0 mi Calm Calm - N/A   Clear
9:58 AM 48.2 °F 31.5 °F 52% 30.21 in 10.0 mi West 3.5 mph - N/A   Clear
10:58 AM 54.0 °F 30.9 °F 41% 30.19 in 10.0 mi Variable 2.3 mph - N/A   Clear
11:58 AM 59.5 °F 27.9 °F 30% 30.17 in 10.0 mi Variable 2.3 mph - N/A   Clear
12:58 PM 62.4 °F 26.8 °F 26% 30.13 in 10.0 mi SW 3.5 mph - N/A   Clear
1:58 PM 64.6 °F 23.9 °F 21% 30.11 in 10.0 mi Variable 1.2 mph - N/A   Clear
2:58 PM 65.5 °F 25.0 °F 22% 30.09 in 10.0 mi WSW 1.2 mph - N/A   Clear
3:58 PM 65.5 °F 25.7 °F 22% 30.09 in 10.0 mi Calm Calm - N/A   Clear
4:58 PM 61.2 °F 35.6 °F 39% 30.09 in 10.0 mi Calm Calm - N/A   Clear
5:58 PM 49.5 °F 36.9 °F 62% 30.10 in 10.0 mi Calm Calm - N/A   Clear
6:58 PM 46.2 °F 36.1 °F 68% 30.09 in 10.0 mi Calm Calm - N/A   Clear
7:58 PM 43.2 °F 34.3 °F 71% 30.09 in 10.0 mi Calm Calm - N/A   Clear
8:58 PM 42.1 °F 33.8 °F 72% 30.10 in 10.0 mi Calm Calm - N/A   Clear
9:58 PM 41.2 °F 35.6 °F 81% 30.10 in 10.0 mi Calm Calm - N/A   Clear
10:58 PM 39.2 °F 34.0 °F 82% 30.10 in 10.0 mi Calm Calm - N/A   Clear
11:58 PM 37.8 °F 32.4 °F 81% 30.10 in 10.0 mi Calm Calm - N/A   Clear